Flag for Ukraine Weather past 2 weeks in Kyiv, Ukraine

Now
86 °F

Passing clouds.


Feels Like: 84 °F
Forecast: 65 / 90 °F
Wind: 3 mph from Southwest

Location: Kyiv

Current Time: Jul 30, 2014 at 6:25:41 PM

Latest Report: Jul 30, 2014 at 6:00 PM


Visibility: N/A

Pressure: 29.98 "Hg

Humidity: 29%

Dew point: 50 °F

Location of KyivLocation

Historic Weather in Kyiv — Graph

°F

Kyiv temperature yesterday

Maximum temperature yesterday: 84 °F (at 2:00 PM)
Minimum temperature yesterday: 61 °F (at 3:00 AM)
Average temperature yesterday: 73 °F

Past Weeks' High & Low Weather Summary

 TemperatureHumidityPressure
High88 °F (Jul 30, 5:00 PM)100% (Jul 21, 2:00 AM)30.15 "Hg (Jul 21, 2:00 AM)
Low55 °F (Jul 27, 5:00 AM)25% (Jul 30, 3:00 PM)29.77 "Hg (Jul 21, 3:00 PM)
Average72 °F66%29.99 "Hg
* Reported Jul 15 5:00 PM — Jul 30 5:30 PM, Kyiv, Weather by CustomWeather, © 2014

Note: Actual official high and low records may vary slightly from our data, if they occured in-between our weather recording intervals... More about our weather records

Advertising

Kyiv weather history for previous 24 hours

 ConditionsComfort  
Time TempWeatherWind HumidityBarometerVisibility
5:30 PM
Jul 30
86 °FPassing clouds.3 mph31%29.98 "HgN/A
5:00 PM88 °FPassing clouds.6 mph29%29.98 "HgN/A
4:30 PM86 °FPassing clouds.6 mph29%29.98 "HgN/A
4:00 PM86 °FPassing clouds.6 mph29%29.98 "HgN/A
3:30 PM86 °FPassing clouds.8 mph27%29.98 "HgN/A
3:00 PM86 °FPassing clouds.6 mph25%29.98 "HgN/A
2:30 PM86 °FPassing clouds.6 mph29%29.98 "HgN/A
2:00 PM86 °FPassing clouds.8 mph29%30.01 "HgN/A
1:30 PM86 °FPassing clouds.6 mph31%30.01 "HgN/A
1:00 PM86 °FPassing clouds.8 mph29%30.01 "HgN/A
12:30 PM84 °FPassing clouds.6 mph35%30.01 "HgN/A
12:00 PM84 °FPassing clouds.8 mph43%30.01 "HgN/A
11:30 AM84 °FPassing clouds.6 mph40%30.01 "HgN/A
11:00 AM82 °FPassing clouds.6 mph42%30.01 "HgN/A
10:30 AM81 °FPassing clouds.3 mph48%30.01 "HgN/A
10:00 AM81 °FPassing clouds.3 mph45%30.01 "HgN/A
9:30 AM79 °FPassing clouds.3 mph48%30.01 "HgN/A
9:00 AM77 °FPassing clouds.3 mph51%30.01 "HgN/A
8:30 AM73 °FPassing clouds.3 mph57%29.98 "HgN/A
8:00 AM72 °FSunny.6 mph61%29.98 "Hg10 mi
7:30 AM70 °FSunny.6 mph64%29.98 "Hg10 mi
7:00 AM68 °FSunny.3 mph64%29.98 "Hg10 mi
6:30 AM63 °FSunny.3 mph77%29.98 "Hg10 mi
6:00 AM63 °FClear.3 mph73%29.98 "Hg10 mi
5:30 AM61 °FClear.3 mph77%29.98 "Hg10 mi
5:00 AM63 °FClear.6 mph68%29.98 "Hg10 mi
4:30 AM63 °FClear.6 mph73%29.98 "Hg10 mi
4:00 AM61 °FClear.3 mph77%29.98 "Hg10 mi
3:30 AM61 °FClear.3 mph83%29.98 "Hg10 mi
3:00 AM61 °FClear.3 mph88%29.98 "Hg10 mi
2:30 AM61 °FClear.1 mph83%29.98 "Hg10 mi
2:00 AM61 °FClear.1 mph83%30.01 "Hg10 mi
1:30 AM63 °FClear.6 mph73%30.01 "Hg10 mi
1:00 AM61 °FClear.No wind77%29.98 "Hg10 mi
12:30 AM61 °FClear.No wind83%30.01 "Hg10 mi
11:30 PM
Jul 29
63 °FClear.No wind77%29.98 "Hg10 mi
11:00 PM66 °FClear.1 mph64%29.98 "Hg10 mi
10:30 PM68 °FClear.1 mph60%29.98 "Hg10 mi
10:00 PM66 °FClear.No wind64%29.98 "Hg10 mi
9:30 PM68 °FSunny.1 mph64%29.98 "Hg10 mi
9:00 PM75 °FSunny.1 mph44%29.98 "Hg10 mi
8:30 PM77 °FSunny.1 mph42%29.98 "Hg10 mi
8:00 PM79 °FSunny.1 mph37%29.98 "Hg10 mi
7:30 PM81 °FSunny.No wind34%29.98 "Hg10 mi
7:00 PM81 °FPassing clouds.3 mph32%29.98 "HgN/A
6:30 PM82 °FSunny.6 mph30%29.98 "Hg10 mi
6:00 PM82 °FPassing clouds.8 mph32%29.98 "HgN/A
Weather by CustomWeather, © 2014

See weather overviewHow to use our weather pages